Overview Statistics Trail Chart Weather Telemetry Raw packets
 

This is the latest recevied weather packets stored in our database for station/object KM8V-8. If no packets are shown the sender has not sent any weather packets the latest 10 day(s).

<< 25 26 27 28 29 30 31 >>
Time Temp. Humidity Pressure Rain* Wind** Luminosity Snow
1777640417 6.11° C 96% 1012.6 hPa 0.51 mm - 49 W/m² -
1777640120 6.11° C 96% 1012.5 hPa 0.51 mm - 85 W/m² -
1777639820 6.11° C 96% 1012.5 hPa 0.51 mm - 92 W/m² -
1777639521 6.11° C 96% 1012.5 hPa 0.51 mm - 72 W/m² -
1777639220 6.11° C 96% 1012.5 hPa 0.51 mm - 77 W/m² -
1777638920 6.11° C 95% 1012.5 hPa 0.51 mm - 67 W/m² -
1777638620 6.11° C 95% 1012.6 hPa 0.76 mm - 44 W/m² -
1777638320 6.11° C 95% 1012.7 hPa 0.76 mm - 31 W/m² -
1777638020 6.11° C 95% 1012.8 hPa 1.02 mm - 35 W/m² -
1777637720 6.11° C 95% 1012.8 hPa 1.27 mm - 30 W/m² -
1777637423 6.11° C 95% 1012.9 hPa 1.27 mm - 24 W/m² -
1777637124 6.11° C 94% 1012.7 hPa 1.27 mm - 28 W/m² -
1777636825 6.11° C 94% 1012.7 hPa 1.02 mm - 25 W/m² -
1777636524 6.11° C 94% 1012.6 hPa 1.02 mm - 22 W/m² -
1777636219 6.11° C 94% 1012.4 hPa 1.02 mm - 27 W/m² -
1777635918 6.11° C 94% 1012.4 hPa 1.02 mm - 30 W/m² -
1777635621 6.11° C 94% 1012.4 hPa 1.02 mm - 23 W/m² -
1777635321 6.11° C 93% 1012.5 hPa 1.02 mm - 16 W/m² -
1777635021 6.11° C 93% 1012.5 hPa 0.76 mm - 22 W/m² -
1777634722 6.11° C 93% 1012.7 hPa 0.76 mm - 17 W/m² -
1777634421 6.11° C 93% 1012.7 hPa 0.51 mm - 10 W/m² -
1777634121 6.11° C 93% 1012.7 hPa 0.25 mm - 9 W/m² -
1777633821 6.11° C 93% 1012.7 hPa 0 mm - 9 W/m² -
1777633521 6.11° C 93% 1012.6 hPa 0 mm - 16 W/m² -
1777633222 6.11° C 93% 1012.5 hPa 0 mm - 19 W/m² -

* Rain latest hour (hover to see other rain measurements)
** Current wind speed in m/s (hover to see current wind gust speed)